Weather History for Evergreen, AL

Change the Weather History Date:

Tuesday, November 6, 2012

  Actual Average (KPRN) Record (KPRN)
Temperature  
Mean Temperature 54 °F -  
Max Temperature 59 °F 67 °F 84 °F (1943)
Min Temperature 48 °F 42 °F 27 °F (1991)
Degree Days  
Heating Degree Days 12    
Growing Degree Days 4 (Base 50)    
Moisture  
Dew Point 46 °F    
Average Humidity 79    
Maximum Humidity 94    
Minimum Humidity 62    
Precipitation  
Precipitation 0.00 in - - ()
Sea Level Pressure  
Sea Level Pressure 29.99 in    
Wind  
Wind Speed 5 mph (NNW)    
Max Wind Speed 9 mph    
Max Gust Speed 18 mph    
Visibility 10 miles    
Events      
Averages and records for this station are not official NWS values.
T = Trace of Precipitation, MM = Missing Value Source: NWS Daily Summary

Daily Weather History Graph

Daily Weather History Graph

Search for Another Location

Airport:

Trip Planner

Search our weather history database for the weather conditions in past years. The results will help you decide how hot, cold, wet, or windy it might be!

Date:

Astronomy

Nov. 06, 2012 Rise Set
Actual Time 6:08 AM CST 4:54 PM CST
Civil Twilight 5:43 AM CST 5:20 PM CST
Nautical Twilight 5:14 AM CST 5:49 PM CST
Astronomical Twilight 4:45 AM CST 6:17 PM CST
Moon 11:28 PM CST (11/6) 12:03 PM CST (11/6)
Length of Visible Light 11h 36m
Length of Day
10h 46m
Waning Gibbous, 53% of the Moon is Illuminated
Nov 6
Waning Gibbous
Nov 6
Last Quarter
Nov 13
New
Nov 20
First Quarter
Nov 28
Full

Hourly Weather History & Observations

Time (CST) Temp. Dew Point Humidity Pressure Visibility Wind Dir Wind Speed Gust Speed Precip Events Conditions
12:53 AM 50.0 °F 48.0 °F 93% 29.93 in 8.0 mi NNW 4.6 mph - N/A   Clear
1:12 AM 50.0 °F 46.4 °F 87% 29.93 in 10.0 mi North 4.6 mph - N/A   Scattered Clouds
1:20 AM 50.0 °F 48.2 °F 94% 29.93 in 10.0 mi Calm Calm - N/A   Mostly Cloudy
1:27 AM 50.0 °F 48.2 °F 94% 29.93 in 10.0 mi Calm Calm - N/A   Mostly Cloudy
1:53 AM 50.0 °F 48.0 °F 93% 29.93 in 10.0 mi Calm Calm - N/A   Overcast
2:53 AM 50.0 °F 46.9 °F 89% 29.95 in 7.0 mi North 4.6 mph - N/A   Overcast
3:53 AM 50.0 °F 46.9 °F 89% 29.96 in 8.0 mi Variable 3.5 mph - N/A   Overcast
4:53 AM 50.0 °F 46.9 °F 89% 29.98 in 9.0 mi NNW 5.8 mph - N/A   Overcast
5:00 AM 50.0 °F 46.4 °F 87% 29.98 in 10.0 mi NNW 8.1 mph - N/A   Overcast
5:44 AM 50.0 °F 46.4 °F 87% 29.98 in 10.0 mi North 5.8 mph - N/A   Overcast
5:53 AM 50.0 °F 46.0 °F 86% 29.98 in 10.0 mi North 5.8 mph - N/A   Overcast
6:19 AM 50.0 °F 44.6 °F 82% 30.00 in 10.0 mi North 8.1 mph 16.1 mph N/A   Overcast
6:53 AM 48.9 °F 45.0 °F 86% 30.02 in 10.0 mi Variable 5.8 mph - N/A   Overcast
7:17 AM 50.0 °F 46.4 °F 87% 30.02 in 10.0 mi NNW 3.5 mph - N/A   Partly Cloudy
7:53 AM 51.1 °F 46.0 °F 83% 30.01 in 10.0 mi NNW 9.2 mph - N/A   Mostly Cloudy
8:32 AM 51.8 °F 44.6 °F 76% 30.02 in 10.0 mi North 6.9 mph - N/A   Overcast
8:53 AM 53.1 °F 45.0 °F 74% 30.02 in 10.0 mi NNW 9.2 mph - N/A   Mostly Cloudy
9:04 AM 53.6 °F 44.6 °F 72% 30.02 in 10.0 mi NNW 6.9 mph 17.3 mph N/A   Mostly Cloudy
9:25 AM 55.4 °F 46.4 °F 72% 30.02 in 10.0 mi NNW 8.1 mph - N/A   Scattered Clouds
9:53 AM 55.0 °F 46.0 °F 72% 30.01 in 10.0 mi NNW 9.2 mph 17.3 mph N/A   Scattered Clouds
10:14 AM 57.2 °F 46.4 °F 67% 30.01 in 10.0 mi NNW 8.1 mph 18.4 mph N/A   Mostly Cloudy
10:53 AM 57.9 °F 46.0 °F 65% 30.01 in 10.0 mi NW 8.1 mph - N/A   Mostly Cloudy
11:53 AM 59.0 °F 46.0 °F 62% 29.99 in 10.0 mi NW 6.9 mph 16.1 mph N/A   Overcast
12:53 PM 57.9 °F 45.0 °F 62% 29.96 in 10.0 mi North 6.9 mph - N/A   Overcast
1:53 PM 57.0 °F 45.0 °F 64% 29.97 in 10.0 mi Variable 6.9 mph - N/A   Overcast
2:53 PM 57.0 °F 45.0 °F 64% 29.98 in 10.0 mi NNW 8.1 mph - N/A   Overcast
3:53 PM 57.0 °F 45.0 °F 64% 29.98 in 10.0 mi Variable 4.6 mph - N/A   Mostly Cloudy
4:53 PM 54.0 °F 45.0 °F 72% 29.98 in 10.0 mi Calm Calm - N/A   Partly Cloudy
5:53 PM 51.1 °F 45.0 °F 80% 30.00 in 10.0 mi Calm Calm - N/A   Mostly Cloudy
6:53 PM 52.0 °F 45.0 °F 77% 30.01 in 10.0 mi Calm Calm - N/A   Overcast
7:53 PM 52.0 °F 46.0 °F 80% 30.02 in 10.0 mi Calm Calm - N/A   Overcast
8:53 PM 51.1 °F 45.0 °F 80% 30.02 in 10.0 mi Calm Calm - N/A   Overcast
9:53 PM 50.0 °F 45.0 °F 83% 30.03 in 10.0 mi Calm Calm - N/A   Mostly Cloudy
10:53 PM 51.1 °F 45.0 °F 80% 30.02 in 10.0 mi Variable 3.5 mph - N/A   Overcast
11:53 PM 51.1 °F 46.0 °F 83% 30.02 in 10.0 mi Variable 3.5 mph - N/A   Overcast